Location: Arnolds Mill
(42.3415°N, 73.5951°W)
Time: 13:15:26
(UTC+00:00)

STARLINK-34361 - Pass Details

Date: 23 June 2025
Orbit: 301 x 302 km, 53.2° (Epoch: 26 June)

Event Time Altitude Azimuth Distance (km) Brightness Sun altitude
Exits shadow 06:00:42 18° 342° (NNW) 829 5.2 -22.6°
Drops below altitude 10° 06:02:28 10° 24° (NNE) 1,177 6.4 -22.5°
Sets 06:04:45 0° 45° (NE) 2,000 7.5 -22.4°
